Freeport, IL

3:27 AM CST on November 18, 2017 (GMT -0600)
Albertus

Weather History for KFEP - January, 2013

Change the Weather History Date:

Wednesday, January 16, 2013

  Actual Average Record
Temperature  
Mean Temperature 26 °F -  
Max Temperature 36 °F 26 °F 51 °F (1990)
Min Temperature 17 °F 7 °F -25 °F (2009)
Degree Days  
Heating Degree Days 38    
Moisture  
Dew Point 22 °F    
Average Humidity 76    
Maximum Humidity 91    
Minimum Humidity 64    
Precipitation  
Precipitation 0.00 in - - ()
Sea Level Pressure  
Sea Level Pressure 29.95 in    
Wind  
Wind Speed 11 mph (SW)    
Max Wind Speed 21 mph    
Max Gust Speed 28 mph    
Visibility 10 miles    
Events      
Averages and records for this station are not official NWS values.
T = Trace of Precipitation, MM = Missing Value Source: NWS Daily Summary

Daily Weather History Graph

Daily Weather History Graph

Search for Another Location

Airport or City:

Trip Planner

Search our weather history database for the weather conditions in past years. The results will help you decide how hot, cold, wet, or windy it might be!

Date:

Astronomy

Jan. 16, 2013 Rise Set
Actual Time 7:23 AM CST 4:52 PM CST
Civil Twilight 6:53 AM CST 5:23 PM CST
Nautical Twilight 6:18 AM CST 5:58 PM CST
Astronomical Twilight 5:45 AM CST 6:31 PM CST
Moon 9:53 AM CST (1/16) 10:52 PM CST (1/16)
Length of Visible Light 10h 30m
Length of Day
9h 28m
Waxing Crescent, 28% of the Moon is Illuminated
Jan 16
Waxing Crescent
Jan 18
First Quarter
Jan 26
Full
Feb 3
Last Quarter
Feb 10
New

Hourly Weather History & Observations

Time (CST) Temp. Windchill Dew Point Humidity Pressure Visibility Wind Dir Wind Speed Gust Speed Precip Events Conditions
12:15 AM 18.5 °F 8.4 °F 12.9 °F 79% 30.11 in 10.0 mi SSW 8.1 mph - N/A   Clear
12:35 AM 18.5 °F 10.4 °F 13.1 °F 79% 30.10 in 10.0 mi SSW 5.8 mph - N/A   Clear
12:55 AM 18.5 °F 10.4 °F 11.8 °F 75% 30.08 in 10.0 mi SSW 5.8 mph - N/A   Clear
1:15 AM 18.5 °F 6.8 °F 12.0 °F 76% 30.07 in 10.0 mi SSW 10.4 mph - N/A   Clear
1:35 AM 18.9 °F 6.5 °F 10.9 °F 71% 30.06 in 10.0 mi SSW 11.5 mph - N/A   Clear
1:55 AM 18.5 °F 7.5 °F 10.6 °F 71% 30.07 in 10.0 mi SSW 9.2 mph - N/A   Clear
2:15 AM 18.5 °F 7.5 °F 11.1 °F 73% 30.06 in 10.0 mi SSW 9.2 mph - N/A   Clear
2:35 AM 18.5 °F 6.8 °F 11.7 °F 75% 30.05 in 10.0 mi SSW 10.4 mph - N/A   Clear
2:55 AM 18.5 °F 6.8 °F 11.3 °F 73% 30.05 in 10.0 mi South 10.4 mph - N/A   Clear
3:15 AM 18.5 °F 6.8 °F 11.3 °F 73% 30.04 in 10.0 mi South 10.4 mph - N/A   Clear
4:06 AM 17.6 °F 4.3 °F 10.4 °F 73% 30.01 in 10.0 mi South 12.7 mph - N/A   Clear
4:19 AM 17.6 °F 2.7 °F 10.4 °F 73% 30.00 in 10.0 mi South 16.1 mph - N/A   Clear
5:43 AM 17.6 °F 3.2 °F 10.4 °F 73% 29.96 in 10.0 mi SSW 15.0 mph - N/A   Clear
5:59 AM 17.6 °F 2.7 °F 10.4 °F 73% 29.95 in 10.0 mi South 16.1 mph - N/A   Clear
7:03 AM 19.4 °F 4.5 °F 10.4 °F 68% 29.93 in 10.0 mi South 17.3 mph 23.0 mph N/A   Clear
7:23 AM 19.4 °F 4.5 °F 10.4 °F 68% 29.93 in 10.0 mi South 17.3 mph 23.0 mph N/A   Clear
7:39 AM 19.4 °F 5.5 °F 10.4 °F 68% 29.93 in 10.0 mi South 15.0 mph - N/A   Clear
8:00 AM 19.4 °F 4.5 °F 12.2 °F 74% 29.93 in 10.0 mi South 17.3 mph - N/A   Clear
8:20 AM 21.2 °F 6.4 °F 12.2 °F 68% 29.91 in 10.0 mi South 18.4 mph 23.0 mph N/A   Clear
8:39 AM 21.2 °F 6.4 °F 14.0 °F 74% 29.91 in 10.0 mi South 18.4 mph 24.2 mph N/A   Clear
8:55 AM 22.1 °F 7.6 °F 13.8 °F 70% 29.91 in 10.0 mi SSW 18.4 mph 25.3 mph N/A   Clear
9:06 AM 24.8 °F 11.1 °F 15.8 °F 69% 29.91 in 10.0 mi SSW 18.4 mph 24.2 mph N/A   Scattered Clouds
9:15 AM 23.7 °F 10.5 °F 14.9 °F 69% 29.91 in 10.0 mi SSW 16.1 mph 24.2 mph N/A   Scattered Clouds
9:35 AM 23.7 °F 11.0 °F 15.4 °F 71% 29.89 in 10.0 mi SSW 15.0 mph - N/A   Mostly Cloudy
9:55 AM 25.3 °F 12.2 °F 16.7 °F 70% 29.88 in 10.0 mi SSW 17.3 mph 23.0 mph N/A   Mostly Cloudy
10:15 AM 26.2 °F 13.0 °F 18.0 °F 71% 29.87 in 10.0 mi SSW 18.4 mph 23.0 mph N/A   Scattered Clouds
10:35 AM 27.9 °F 16.3 °F 18.9 °F 69% 29.87 in 10.0 mi SSW 15.0 mph 23.0 mph N/A   Clear
10:55 AM 29.8 °F 19.8 °F 20.7 °F 69% 29.86 in 10.0 mi SSW 12.7 mph 24.2 mph N/A   Clear
11:15 AM 31.5 °F 20.5 °F 21.4 °F 66% 29.84 in 10.0 mi SSW 16.1 mph 20.7 mph N/A   Clear
11:35 AM 33.8 °F 22.2 °F 22.6 °F 64% 29.84 in 10.0 mi SSW 20.7 mph 27.6 mph N/A   Mostly Cloudy
11:55 AM 33.8 °F 22.5 °F 23.0 °F 65% 29.83 in 10.0 mi SW 19.6 mph 24.2 mph N/A   Overcast
12:15 PM 33.8 °F 22.5 °F 23.7 °F 67% 29.83 in 10.0 mi SSW 19.6 mph 25.3 mph N/A   Overcast
12:35 PM 33.8 °F 22.5 °F 23.0 °F 65% 29.83 in 10.0 mi SW 19.6 mph 25.3 mph N/A   Overcast
12:55 PM 33.8 °F 24.3 °F 24.4 °F 69% 29.83 in 10.0 mi SW 13.8 mph 23.0 mph N/A   Overcast
1:15 PM 33.8 °F 23.9 °F 24.8 °F 70% 29.82 in 10.0 mi SW 15.0 mph 21.9 mph N/A   Overcast
1:35 PM 33.8 °F 24.8 °F 25.0 °F 70% 29.83 in 10.0 mi SW 12.7 mph 19.6 mph N/A   Overcast
1:55 PM 33.8 °F 25.3 °F 25.0 °F 70% 29.83 in 10.0 mi SW 11.5 mph - N/A   Overcast
2:15 PM 34.0 °F 25.5 °F 25.7 °F 72% 29.83 in 10.0 mi SW 11.5 mph - N/A   Overcast
2:35 PM 36.1 °F 27.3 °F 27.0 °F 69% 29.83 in 10.0 mi SW 13.8 mph 18.4 mph N/A   Overcast
2:55 PM 35.2 °F 27.1 °F 27.1 °F 72% 29.84 in 10.0 mi SW 11.5 mph 17.3 mph N/A   Overcast
3:15 PM 36.1 °F 29.3 °F 28.2 °F 73% 29.85 in 10.0 mi SW 9.2 mph - N/A   Mostly Cloudy
3:35 PM 36.1 °F 29.9 °F 29.1 °F 76% 29.88 in 10.0 mi WSW 8.1 mph - N/A   Mostly Cloudy
4:15 PM 34.9 °F 28.3 °F 29.3 °F 80% 29.91 in 10.0 mi SW 8.1 mph - N/A   Overcast
4:35 PM 34.9 °F 29.9 °F 29.3 °F 80% 29.92 in 10.0 mi SW 5.8 mph - N/A   Overcast
4:55 PM 33.8 °F 28.6 °F 28.9 °F 82% 29.93 in 10.0 mi SSW 5.8 mph - N/A   Mostly Cloudy
5:15 PM 33.8 °F 27.0 °F 29.3 °F 84% 29.94 in 10.0 mi SSW 8.1 mph - N/A   Mostly Cloudy
5:35 PM 33.8 °F 27.0 °F 29.3 °F 84% 29.94 in 10.0 mi SW 8.1 mph - N/A   Overcast
5:55 PM 33.8 °F 27.0 °F 29.3 °F 84% 29.94 in 10.0 mi SSW 8.1 mph - N/A   Overcast
6:15 PM 33.8 °F 26.4 °F 29.7 °F 85% 29.95 in 10.0 mi SW 9.2 mph - N/A   Overcast
6:35 PM 34.2 °F 26.2 °F 30.0 °F 85% 29.95 in 10.0 mi SW 10.4 mph - N/A   Overcast
6:55 PM 34.2 °F 26.8 °F 30.0 °F 85% 29.96 in 10.0 mi SW 9.2 mph - N/A   Overcast
7:15 PM 34.9 °F 27.7 °F 30.4 °F 84% 29.97 in 10.0 mi SW 9.2 mph - N/A   Overcast
7:35 PM 35.2 °F 28.1 °F 30.9 °F 84% 29.99 in 10.0 mi SW 9.2 mph - N/A   Overcast
7:55 PM 35.1 °F 29.3 °F 30.6 °F 84% 29.99 in 10.0 mi SW 6.9 mph - N/A   Overcast
8:15 PM 34.9 °F 29.9 °F 30.6 °F 84% 30.00 in 10.0 mi SW 5.8 mph - N/A   Overcast
8:35 PM 34.9 °F 29.0 °F 30.9 °F 85% 30.01 in 10.0 mi SW 6.9 mph - N/A   Overcast
8:55 PM 34.3 °F 28.4 °F 30.7 °F 87% 30.01 in 10.0 mi SW 6.9 mph - N/A   Scattered Clouds
9:15 PM 33.8 °F 27.7 °F 30.6 °F 88% 30.01 in 10.0 mi SSW 6.9 mph - N/A   Scattered Clouds
9:35 PM 33.8 °F 27.0 °F 30.7 °F 89% 30.01 in 10.0 mi SSW 8.1 mph - N/A   Scattered Clouds
9:55 PM 33.8 °F 28.6 °F 30.9 °F 89% 30.02 in 10.0 mi SW 5.8 mph - N/A   Clear
10:15 PM 33.8 °F 29.6 °F 31.1 °F 90% 30.03 in 10.0 mi West 4.6 mph - N/A   Scattered Clouds
10:35 PM 33.8 °F 28.6 °F 31.1 °F 90% 30.04 in 10.0 mi West 5.8 mph - N/A   Scattered Clouds
10:55 PM 33.8 °F 28.6 °F 31.3 °F 90% 30.04 in 10.0 mi West 5.8 mph - N/A   Clear
11:15 PM 33.8 °F 28.6 °F 31.5 °F 91% 30.05 in 10.0 mi WNW 5.8 mph - N/A   Scattered Clouds
11:35 PM 33.8 °F 27.7 °F 31.3 °F 90% 30.06 in 10.0 mi WNW 6.9 mph - N/A   Mostly Cloudy
11:55 PM 34.9 °F 29.0 °F 31.8 °F 89% 30.07 in 10.0 mi WNW 6.9 mph - N/A   Overcast